Date String (YYYY-MM-DD hh:mm:ss) UTC,Instrument flags,absolute air pressure of the measurement (hPa),sample flow rate (lpm),inlet stack bypass flow (lpm),air temperature of the measurement (°C),ambient temperature measured by the external sensor (°C),aerosol sample conditioner tube jacket temperature (°C),OPC LED temperature (°C),internal box temperature (°C),relative humidity of the measurement (%),span deviation,mass concentration of particles derived from Lorenz-Mie calculation of OPC scattering (μg/m³),mass concentration of particles derived from Lorenz-Mie calculation of OPC scattering (μg/m³),mass concentration of particles derived from Lorenz-Mie calculation of OPC scattering (μg/m³)
DateTimeUTC,F1_M11,P_M11,Q1_M11,Q2_M11,T1_M11,T2_M11,T3_M11,T4_M11,T5_M11,U1_M11,ZSPAN_M11,X2_M11,X0_M11,X1_M11
2023-10-04 13:00:00,SystemResetWarning,0832.7,5.00,000.00,028.9,027.3,000.0,037.5,030.5,15.4,0000.0,0002.73,0006.03,0002.07
2023-10-04 13:01:00,SystemResetWarning,0832.7,5.00,000.00,028.9,027.3,000.0,037.5,030.4,15.4,0000.0,0002.69,0005.68,0002.06
2023-10-04 13:02:00,SystemResetWarning,0832.7,5.00,000.00,028.9,027.3,000.0,037.5,030.4,15.3,0000.0,0002.65,0005.57,0002.03
2023-10-04 13:03:00,SystemResetWarning,0832.7,5.00,000.00,028.9,027.3,000.0,037.5,030.3,15.2,0000.0,0002.61,0005.28,0002.02
2023-10-04 13:04:00,SystemResetWarning,0832.7,5.00,000.00,028.9,027.3,000.0,037.5,030.3,15.2,0000.0,0002.61,0005.97,0002.00
2023-10-04 13:05:00,SystemResetWarning,0832.6,5.00,000.00,028.8,027.2,000.0,037.4,030.3,15.2,0000.0,0002.60,0006.00,0002.00
2023-10-04 13:06:00,SystemResetWarning,0832.7,5.01,000.00,028.8,027.2,000.0,037.4,030.3,15.3,0000.0,0002.55,0006.46,0001.99
2023-10-04 13:07:00,SystemResetWarning,0832.6,5.00,000.00,028.8,027.2,000.0,037.4,030.2,15.3,0000.0,0002.55,0006.70,0001.98
2023-10-04 13:08:00,SystemResetWarning,0832.6,5.00,000.00,028.7,027.2,000.0,037.4,030.2,15.3,0000.0,0002.52,0006.67,0001.98
2023-10-04 13:09:00,SystemResetWarning,0832.6,5.00,000.00,028.7,027.2,000.0,037.4,030.2,15.3,0000.0,0002.57,0007.30,0001.97
2023-10-04 13:10:00,SystemResetWarning,0832.5,5.00,000.00,028.7,027.1,000.0,037.3,030.2,15.3,0000.0,0002.63,0007.60,0001.98
2023-10-04 13:11:00,SystemResetWarning,0832.5,5.00,000.00,028.7,027.1,000.0,037.3,030.2,15.3,0000.0,0002.64,0007.99,0001.98
2023-10-04 13:12:00,SystemResetWarning,0832.5,5.00,000.00,028.7,027.1,000.0,037.3,030.2,15.4,0000.0,0002.67,0008.17,0001.99
2023-10-04 13:13:00,SystemResetWarning,0832.5,5.00,000.00,028.7,027.1,000.0,037.3,030.2,15.3,0000.0,0002.72,0008.19,0002.00
2023-10-04 13:14:00,SystemResetWarning,0832.6,5.01,000.00,028.6,027.1,000.0,037.3,030.1,15.3,0000.0,0002.71,0008.26,0002.00
2023-10-04 13:15:00,SystemResetWarning,0832.5,5.01,000.00,028.6,027.0,000.0,037.3,030.1,15.3,0000.0,0002.69,0008.09,0002.01
2023-10-04 13:16:00,SystemResetWarning,0832.5,5.01,000.00,028.6,027.0,000.0,037.3,030.1,15.4,0000.0,0002.67,0008.02,0002.01
2023-10-04 13:17:00,SystemResetWarning,0832.5,5.00,000.00,028.6,027.0,000.0,037.3,030.1,15.3,0000.0,0002.70,0007.77,0002.03
2023-10-04 13:18:00,SystemResetWarning,0832.5,4.99,000.00,028.6,027.0,000.0,037.2,030.1,15.3,0000.0,0002.68,0007.60,0002.03
2023-10-04 13:19:00,SystemResetWarning,0832.5,4.99,000.00,028.6,027.0,000.0,037.2,030.2,15.4,0000.0,0002.70,0007.87,0002.05
2023-10-04 13:20:00,SystemResetWarning,0832.5,5.00,000.00,028.6,027.0,000.0,037.2,030.2,15.4,0000.0,0002.73,0007.80,0002.06
2023-10-04 13:21:00,SystemResetWarning,0832.5,5.01,000.00,028.6,027.1,000.0,037.2,030.2,15.4,0000.0,0002.66,0007.87,0002.05
2023-10-04 13:22:00,SystemResetWarning,0832.6,5.00,000.00,028.6,027.1,000.0,037.2,030.2,15.5,0000.0,0002.67,0007.63,0002.06
2023-10-04 13:23:00,SystemResetWarning,0832.6,5.01,000.00,028.6,027.1,000.0,037.2,030.2,15.4,0000.0,0002.69,0007.44,0002.08
2023-10-04 13:24:00,SystemResetWarning,0832.6,4.99,000.00,028.6,027.2,000.0,037.2,030.2,15.4,0000.0,0002.67,0007.78,0002.08
2023-10-04 13:25:00,SystemResetWarning,0832.7,5.00,000.00,028.7,027.3,000.0,037.2,030.3,15.5,0000.0,0002.68,0008.36,0002.08
2023-10-04 13:26:00,SystemResetWarning,0832.7,5.00,000.00,028.7,027.4,000.0,037.2,030.3,15.5,0000.0,0002.67,0007.99,0002.08
2023-10-04 13:27:00,SystemResetWarning,0832.7,5.00,000.00,028.7,027.5,000.0,037.2,030.4,15.5,0000.0,0002.71,0007.98,0002.08
2023-10-04 13:28:00,SystemResetWarning,0832.7,5.00,000.00,028.8,027.5,000.0,037.2,030.4,15.5,0000.0,0002.68,0008.00,0002.07
2023-10-04 13:29:00,SystemResetWarning,0832.7,5.00,000.00,028.8,027.6,000.0,037.2,030.4,15.5,0000.0,0002.71,0008.89,0002.06
2023-10-04 13:30:00,SystemResetWarning,0832.8,5.00,000.00,028.8,027.6,000.0,037.2,030.5,15.4,0000.0,0002.76,0009.20,0002.08
2023-10-04 13:31:00,SystemResetWarning,0832.8,5.01,000.00,028.8,027.6,000.0,037.2,030.5,15.4,0000.0,0002.73,0009.16,0002.10
2023-10-04 13:32:00,SystemResetWarning,0832.7,5.01,000.00,028.9,027.7,000.0,037.2,030.5,15.4,0000.0,0002.75,0009.11,0002.12
2023-10-04 13:33:00,SystemResetWarning,0832.8,4.99,000.00,028.9,027.7,000.0,037.3,030.5,15.4,0000.0,0002.75,0009.03,0002.10
2023-10-04 13:34:00,SystemResetWarning,0832.8,4.99,000.00,028.9,027.7,000.0,037.3,030.6,15.4,0000.0,0002.72,0008.97,0002.08
2023-10-04 13:35:00,SystemResetWarning,0832.8,4.99,000.00,028.9,027.7,000.0,037.3,030.6,15.4,0000.0,0002.76,0008.75,0002.08
2023-10-04 13:36:00,SystemResetWarning,0832.8,5.01,000.00,029.0,027.8,000.0,037.3,030.6,15.3,0000.0,0002.79,0008.40,0002.07
2023-10-04 13:37:00,SystemResetWarning,0832.8,5.02,000.00,029.0,027.8,000.0,037.3,030.6,15.2,0000.0,0002.84,0009.38,0002.05
2023-10-04 13:38:00,SystemResetWarning,0832.8,5.00,000.00,029.0,027.8,000.0,037.3,030.6,15.3,0000.0,0002.82,0009.51,0002.05
2023-10-04 13:39:00,SystemResetWarning,0832.8,5.00,000.00,029.0,027.8,000.0,037.3,030.6,15.2,0000.0,0002.88,0009.56,0002.04
2023-10-04 13:40:00,SystemResetWarning,0832.8,4.99,000.00,029.0,027.8,000.0,037.4,030.7,15.1,0000.0,0002.86,0008.93,0002.05
2023-10-04 13:41:00,SystemResetWarning,0832.8,4.99,000.00,029.0,027.8,000.0,037.4,030.7,15.1,0000.0,0002.81,0008.34,0002.03
2023-10-04 13:42:00,SystemResetWarning,0832.8,5.00,000.00,029.0,027.9,000.0,037.4,030.7,15.0,0000.0,0002.76,0008.25,0002.00
2023-10-04 13:43:00,SystemResetWarning,0832.8,5.00,000.00,029.1,027.9,000.0,037.4,030.7,15.1,0000.0,0002.76,0007.85,0001.98
2023-10-04 13:44:00,SystemResetWarning,0832.8,5.01,000.00,029.1,027.9,000.0,037.4,030.7,15.0,0000.0,0002.80,0007.63,0001.99
2023-10-04 13:45:00,SystemResetWarning,0832.8,5.01,000.00,029.1,027.9,000.0,037.4,030.7,15.1,0000.0,0002.81,0007.84,0001.98
2023-10-04 13:46:00,SystemResetWarning,0832.8,4.99,000.00,029.1,027.9,000.0,037.4,030.7,15.1,0000.0,0002.76,0007.99,0001.97
2023-10-04 13:47:00,SystemResetWarning,0832.8,4.99,000.00,029.1,027.9,000.0,037.5,030.7,15.1,0000.0,0002.73,0008.04,0001.97
2023-10-04 13:48:00,SystemResetWarning,0832.8,5.00,000.00,029.1,027.9,000.0,037.5,030.8,15.1,0000.0,0002.69,0007.30,0001.97
2023-10-04 13:49:00,SystemResetWarning,0832.8,5.01,000.00,029.2,027.9,000.0,037.5,030.8,15.0,0000.0,0002.67,0006.50,0001.97
2023-10-04 13:50:00,SystemResetWarning,0832.9,5.01,000.00,029.2,027.9,000.0,037.5,030.8,15.1,0000.0,0002.62,0006.20,0001.98
2023-10-04 13:51:00,SystemResetWarning,0832.8,5.00,000.00,029.2,027.9,000.0,037.5,030.8,15.0,0000.0,0002.58,0006.22,0001.95
2023-10-04 13:52:00,SystemResetWarning,0832.7,5.00,000.00,029.2,028.0,000.0,037.5,030.8,15.0,0000.0,0002.57,0006.06,0001.92
2023-10-04 13:53:00,SystemResetWarning,0832.7,5.00,000.00,029.2,028.0,000.0,037.5,030.8,15.0,0000.0,0002.58,0005.90,0001.91
2023-10-04 13:54:00,SystemResetWarning,0832.8,5.00,000.00,029.2,028.0,000.0,037.6,030.9,15.0,0000.0,0002.61,0006.05,0001.92
2023-10-04 13:55:00,SystemResetWarning,0832.9,5.00,000.00,029.2,028.0,000.0,037.6,030.9,15.0,0000.0,0002.56,0005.95,0001.90
2023-10-04 13:56:00,SystemResetWarning,0832.7,5.00,000.00,029.3,028.0,000.0,037.6,030.9,15.0,0000.0,0002.52,0005.39,0001.90
2023-10-04 13:57:00,SystemResetWarning,0832.8,5.00,000.00,029.3,028.0,000.0,037.6,030.9,15.0,0000.0,0002.56,0005.06,0001.90
2023-10-04 13:58:00,SystemResetWarning,0832.8,5.00,000.00,029.3,028.0,000.0,037.6,030.9,15.1,0000.0,0002.54,0004.85,0001.88
2023-10-04 13:59:00,SystemResetWarning,0832.7,5.00,000.00,029.3,028.0,000.0,037.6,030.9,15.1,0000.0,0002.51,0004.53,0001.87
